Regional Weather Roundup
Issued by NWS

Home | Current Version | Previous Version | Graphics & Text | Print | Product List | Glossary On
Versions: 1 2 3 4 5 6 7 8 9 10 11 12 13 14 15 16 17 18 19 20 21 22 23 24 25 26 27 28 29 30 31 32 33 34 35 36 37 38 39 40 41 42 43 44 45 46 47 48
000
ASUS45 KCYS 240410
RWRWY

WYOMING REGIONAL WEATHER ROUNDUP
NATIONAL WEATHER SERVICE CHEYENNE WY
1000 PM MDT TUE SEP 23 2014

NOTE:  "FAIR" INDICATES FEW OR NO CLOUDS BELOW 12,000 FEET
WITH NO SIGNIFICANT WEATHER AND/OR OBSTRUCTIONS TO VISIBILITY.

WYZ001-240500-
YELLOWSTONE NATIONAL PARK

CITY           SKY/WX    TMP DP  RH WIND       PRES   REMARKS
LK YELLOWSTONE   N/A     43  41  93 CALM      30.36R
W YELLOWSTONE  NOT AVBL

$$
WYZ002>013-054>058-071-098>099-240500-
NORTHERN WYOMING

CITY           SKY/WX    TMP DP  RH WIND       PRES   REMARKS
JACKSON        CLEAR     57  48  72 CALM      30.27R
CODY           CLEAR     63  43  48 CALM      30.14R
GREYBULL       CLEAR     65  45  48 SE6       30.07R
WORLAND        CLEAR     67  42  40 SE9       30.08R
SHERIDAN       CLEAR     55  47  74 S5        30.07R
BUFFALO        CLEAR     62  44  51 SW10      30.14R
GILLETTE       CLEAR     50  43  77 SW5       30.08R
HULETT         FAIR      59  48  67 MISG      30.08
NEWCASTLE      FAIR      59  45  58 N9        30.08

$$
WYZ014>020-022>026-101>103-240500-
CENTRAL WYOMING

CITY           SKY/WX    TMP DP  RH WIND       PRES   REMARKS
BIG PINEY      CLEAR     52  42  69 N6        30.31R
PINEDALE       CLEAR     48  41  76 CALM      30.32R
DUBOIS         FAIR      52  37  58 NW7       30.30R
LANDER         CLEAR     62  40  44 W6        30.16R
RIVERTON       CLEAR     66  33  29 NE5       30.17R
CASPER         CLEAR     52  38  58 W6        30.17R
DOUGLAS        CLEAR     57  41  55 W8        30.15R

$$
WYZ021-027>030-104>119-240500-
SOUTHERN WYOMING

CITY           SKY/WX    TMP DP  RH WIND       PRES   REMARKS
EVANSTON       PTCLDY    61  41  47 NW6       30.32R
KEMMERER       CLEAR     54  43  66 W5        30.33S
FORT BRIDGER   FAIR      58  41  53 W6        30.35R
ROCK SPRINGS   CLEAR     60  41  49 W10       30.28S
DIXON          FAIR      55  47  74 E5        30.32R
RAWLINS        PTCLDY    59  40  49 CALM      30.28R
SARATOGA       FAIR      52  43  71 CALM      30.31R
LARAMIE        PTCLDY    52  42  69 W6        30.30R
CHEYENNE       PTCLDY    60  41  49 N6        30.24R
TORRINGTON     PTCLDY    61  49  64 SW6       30.08R
PINE BLUFFS    FAIR      52  45  76 CALM      30.18R

$$



USA.gov is the U.S. government's official web portal to all federal, state and local government web resources and services.